Terminal Aerodrome Forecast
Issued by NWS Topeka, KS

Home | Current Version | Previous Version | Text Only | Print | Product List | Glossary Off
Versions: 1 2 3 4 5 6 7 8 9 10 11 12 13 14 15 16 17

402
FTUS43 KTOP 161720
TAFTOP
TAF
KTOP 161720Z 1618/1718 VRB06KT 4SM BR VCSH OVC004
     FM170700 30008KT 5SM BR OVC007=

USA.gov is the U.S. government's official web portal to all federal, state and local government web resources and services.